Simultaneous Nadir Overpasses (SNOs) Predictions

Prediction of SNOs between NOAA-20 and NOAA-19 Satellite Orbit:

Table of predicted SNOs for the next 14.0 days since TLE Epoch: 10/24/2020
Index Date (NOAA-20) Time (NOAA-20) Lat,Lon (NOAA-20) SZA (NOAA-20 ) Date (NOAA-19) Time (NOAA-19) Lat,Lon (NOAA-19) SZA (NOAA-19 ) Distance(km) Time Diff (sec)
1 10/30/2020 15:59:40 -78.93, 89.89 85.96 10/30/2020 15:58:35 -78.93, 89.83 85.94 1.48 65
2 10/30/2020 16:50:25 78.93,-102.74 94.05 10/30/2020 16:49:31 78.93,-102.84 94.08 2.34 54
3 10/30/2020 17:41:10 -78.94, 64.50 85.93 10/30/2020 17:40:35 -78.94, 64.46 85.91 1.12 35
4 10/30/2020 18:31:55 78.93,-128.13 94.07 10/30/2020 18:31:31 78.95,-128.22 94.11 3.02 24
5 10/30/2020 19:22:40 -78.94, 39.11 85.91 10/30/2020 19:22:35 -78.96, 39.09 85.89 2.37 5
6 10/30/2020 20:13:26 78.97,-153.77 94.15 10/30/2020 20:13:31 78.97,-153.59 94.13 3.78 5
7 10/30/2020 21:04:11 -78.98, 13.48 85.83 10/30/2020 21:04:36 -78.94, 13.47 85.87 3.72 25
8 10/30/2020 21:54:56 78.97,-179.16 94.18 10/30/2020 21:55:32 78.95,-179.22 94.15 2.61 36
9 10/30/2020 22:45:41 -78.98, -11.91 85.80 10/30/2020 22:46:36 -78.96, -11.90 85.84 2.15 55
10 10/30/2020 23:36:26 78.97, 155.45 94.20 10/30/2020 23:37:32 78.96, 155.40 94.18 1.23 66
